Weather History for Brownsville, TX

Change the Weather History Date:

Friday, February 22, 2013

  Actual Average Record
Temperature  
Mean Temperature 76 °F 65 °F  
Max Temperature 84 °F 75 °F 87 °F (1909)
Min Temperature 68 °F 56 °F 27 °F (1894)
Degree Days  
Heating Degree Days 0 3  
Month to date heating degree days 24 89  
Since 1 July heating degree days 280 488  
Cooling Degree Days 11 3  
Month to date cooling degree days 138 61  
Year to date cooling degree days 212 120  
Growing Degree Days 26 (Base 50)    
Moisture  
Dew Point 68 °F    
Average Humidity 80    
Maximum Humidity 100    
Minimum Humidity 59    
Precipitation  
Precipitation 0.00 in 0.02 in 2.68 in (1958)
Month to date precipitation 0.01 0.88  
Year to date precipitation 1.48 2.15  
Sea Level Pressure  
Sea Level Pressure 29.81 in    
Wind  
Wind Speed 7 mph (NNE)    
Max Wind Speed 17 mph    
Max Gust Speed 21 mph    
Visibility 7 miles    
Events Fog    
T = Trace of Precipitation, MM = Missing Value Source: NWS Daily Summary

Daily Weather History Graph

Daily Weather History Graph

Search for Another Location

Airport:

Trip Planner

Search our weather history database for the weather conditions in past years. The results will help you decide how hot, cold, wet, or windy it might be!

Date:

Astronomy

Feb. 22, 2013 Rise Set
Actual Time 6:59 AM CST 6:27 PM CST
Civil Twilight 6:35 AM CST 6:50 PM CST
Nautical Twilight 6:08 AM CST 7:17 PM CST
Astronomical Twilight 5:42 AM CST 7:44 PM CST
Moon 3:50 PM CST (2/22) 4:33 AM CST (2/22)
Length of Visible Light 12h 15m
Length of Day
11h 28m
Waxing Gibbous, 90% of the Moon is Illuminated
Feb 22
Waxing Gibbous
Feb 25
Full
Mar 4
Last Quarter
Mar 11
New
Mar 19
First Quarter

Hourly Weather History & Observations

Time (CST) Temp. Heat Index Dew Point Humidity Pressure Visibility Wind Dir Wind Speed Gust Speed Precip Events Conditions
12:53 AM 71.1 °F - 69.1 °F 93% 29.78 in 7.0 mi Calm Calm - N/A   Overcast
1:27 AM 71.6 °F - 69.8 °F 94% 29.78 in 6.0 mi ENE 3.5 mph - N/A   Overcast
1:53 AM 72.0 °F - 69.1 °F 91% 29.78 in 6.0 mi NNE 4.6 mph - N/A   Overcast
2:18 AM 71.6 °F - 69.8 °F 94% 29.78 in 3.0 mi North 4.6 mph - N/A   Overcast
2:28 AM 69.8 °F - 69.8 °F 100% 29.77 in 2.5 mi North 6.9 mph - N/A   Overcast
2:53 AM 70.0 °F - 69.1 °F 97% 29.76 in 2.0 mi North 6.9 mph - N/A   Overcast
3:20 AM 69.8 °F - 69.8 °F 100% 29.77 in 1.8 mi North 4.6 mph - N/A   Overcast
3:30 AM 69.8 °F - 69.8 °F 100% 29.77 in 2.0 mi North 4.6 mph - N/A   Overcast
3:53 AM 70.0 °F - 69.1 °F 97% 29.75 in 3.0 mi NNE 5.8 mph - N/A   Overcast
4:53 AM 70.0 °F - 69.1 °F 97% 29.76 in 5.0 mi North 4.6 mph - N/A   Overcast
5:36 AM 69.8 °F - 69.8 °F 100% 29.77 in 1.8 mi NE 8.1 mph - N/A   Overcast
5:53 AM 69.1 °F - 69.1 °F 100% 29.77 in 0.8 mi NNE 5.8 mph - N/A   Mist
6:13 AM 69.8 °F - 69.8 °F 100% 29.78 in 0.5 mi NE 4.6 mph - N/A Fog Fog
6:27 AM 69.8 °F - 69.8 °F 100% 29.79 in 0.8 mi NE 3.5 mph - N/A   Mist
6:53 AM 70.0 °F - 70.0 °F 100% 29.80 in 1.2 mi Calm Calm - N/A   Overcast
7:00 AM 69.8 °F - 69.8 °F 100% 29.80 in 3.0 mi NNE 3.5 mph - N/A   Overcast
7:53 AM 70.0 °F - 70.0 °F 100% 29.83 in 4.0 mi ENE 3.5 mph - N/A   Overcast
8:19 AM 69.8 °F - 69.8 °F 100% 29.84 in 2.5 mi Calm Calm - N/A   Overcast
8:29 AM 69.8 °F - 69.8 °F 100% 29.84 in 1.5 mi Calm Calm - N/A   Overcast
8:53 AM 71.1 °F - 71.1 °F 100% 29.84 in 2.0 mi East 4.6 mph - N/A   Overcast
9:04 AM 71.6 °F - 71.6 °F 100% 29.85 in 3.0 mi NE 6.9 mph - N/A   Overcast
9:53 AM 73.9 °F - 70.0 °F 87% 29.87 in 8.0 mi NNE 5.8 mph - N/A   Overcast
10:04 AM 75.2 °F - 71.6 °F 89% 29.87 in 9.0 mi NE 5.8 mph - N/A   Overcast
10:53 AM 80.1 °F 83.6 °F 71.1 °F 74% 29.86 in 10.0 mi NE 5.8 mph - N/A   Mostly Cloudy
11:04 AM 78.8 °F - 69.8 °F 74% 29.85 in 10.0 mi NE 6.9 mph - N/A   Scattered Clouds
11:53 AM 81.0 °F 83.8 °F 68.0 °F 65% 29.84 in 10.0 mi Calm Calm - N/A   Mostly Cloudy
12:26 PM 75.2 °F - 68.0 °F 78% 29.84 in 9.0 mi North 12.7 mph 18.4 mph N/A   Overcast
12:33 PM 75.2 °F - 68.0 °F 78% 29.83 in 9.0 mi North 10.4 mph 17.3 mph N/A   Overcast
12:50 PM 78.8 °F - 68.0 °F 69% 29.83 in 10.0 mi North 10.4 mph - N/A   Overcast
12:53 PM 80.1 °F 82.9 °F 69.1 °F 69% 29.83 in 10.0 mi North 12.7 mph - N/A   Overcast
1:05 PM 80.6 °F 83.9 °F 69.8 °F 70% 29.82 in 10.0 mi Variable 6.9 mph - N/A   Mostly Cloudy
1:53 PM 84.0 °F 87.0 °F 68.0 °F 58% 29.79 in 10.0 mi NE 9.2 mph - N/A   Clear
2:42 PM 80.6 °F 83.2 °F 68.0 °F 65% 29.77 in 10.0 mi North 10.4 mph 16.1 mph N/A   Mostly Cloudy
2:53 PM 80.1 °F 82.9 °F 69.1 °F 69% 29.77 in 10.0 mi NNE 11.5 mph - N/A   Mostly Cloudy
3:20 PM 78.8 °F - 68.0 °F 69% 29.78 in 10.0 mi North 9.2 mph - N/A   Mostly Cloudy
3:53 PM 77.0 °F - 68.0 °F 74% 29.78 in 10.0 mi NE 12.7 mph - N/A   Partly Cloudy
4:42 PM 73.4 °F - 66.2 °F 78% 29.79 in 10.0 mi NNE 12.7 mph - N/A   Mostly Cloudy
4:53 PM 73.0 °F - 66.0 °F 79% 29.78 in 10.0 mi NNE 11.5 mph - N/A   Overcast
5:53 PM 72.0 °F - 66.0 °F 81% 29.81 in 10.0 mi NNE 9.2 mph - N/A   Overcast
6:53 PM 71.1 °F - 64.9 °F 81% 29.83 in 10.0 mi NNE 10.4 mph - N/A   Overcast
7:53 PM 70.0 °F - 64.9 °F 84% 29.83 in 10.0 mi NNE 11.5 mph - N/A   Overcast
8:53 PM 70.0 °F - 64.9 °F 84% 29.86 in 10.0 mi NNE 10.4 mph - N/A   Overcast
9:30 PM 69.8 °F - 64.4 °F 83% 29.86 in 10.0 mi NNE 9.2 mph - N/A   Overcast
9:53 PM 69.1 °F - 64.9 °F 87% 29.87 in 10.0 mi NNE 10.4 mph - N/A   Overcast
10:53 PM 69.1 °F - 66.0 °F 90% 29.88 in 9.0 mi NE 10.4 mph - N/A   Overcast
11:53 PM 68.0 °F - 64.9 °F 90% 29.86 in 10.0 mi North 10.4 mph 16.1 mph N/A   Overcast